ACA1975 CYQB-CYUL

Flight info

Callsign ACA1975
Flight time 0h 30m
Altitude 22000
Route TIBOS ROCKT3
Aircraft A319/M-SDE3FGHIRWY/LB1

Departure

Time 2026-05-05 00:25
Airport Quebec Jean Lesage International Airport (CYQB)

Arrival

Time 2026-05-05 00:56
Airport Montreal / Pierre Elliott Trudeau International Airport (CYUL)
Time Latitude Longitude Altitude Speed Heading
2026-05-04 23:52 46.79301 -71.38422 244 ft 0 kts 120°
2026-05-05 00:15 46.79302 -71.38423 244 ft 1 kts 118°
2026-05-05 00:15 46.79314 -71.38454 235 ft 4 kts 119°
2026-05-05 00:16 46.79327 -71.38488 245 ft 4 kts 119°
2026-05-05 00:16 46.79337 -71.38523 244 ft 4 kts 88°
2026-05-05 00:16 46.79330 -71.38552 244 ft 4 kts 22°
2026-05-05 00:16 46.79320 -71.38556 244 ft 1 kts 12°
2026-05-05 00:17 46.79320 -71.38557 244 ft 0 kts 12°
2026-05-05 00:21 46.79345 -71.38549 244 ft 7 kts 12°
2026-05-05 00:21 46.79403 -71.38490 244 ft 13 kts 41°
2026-05-05 00:21 46.79482 -71.38377 244 ft 18 kts 44°
2026-05-05 00:22 46.79587 -71.38278 244 ft 19 kts 34°
2026-05-05 00:22 46.79683 -71.38141 244 ft 19 kts 44°
2026-05-05 00:22 46.79799 -71.38046 244 ft 20 kts
2026-05-05 00:22 46.79873 -71.38046 244 ft 0 kts
2026-05-05 00:23 46.79878 -71.38046 244 ft 2 kts
2026-05-05 00:23 46.79913 -71.38047 244 ft 8 kts 354°
2026-05-05 00:24 46.79957 -71.38090 246 ft 8 kts 314°
2026-05-05 00:24 46.79971 -71.38157 245 ft 8 kts 238°
2026-05-05 00:24 46.79935 -71.38201 246 ft 0 kts 224°
2026-05-05 00:25 46.79742 -71.38476 246 ft 85 kts 224°
2026-05-05 00:25 46.79133 -71.39343 274 ft 156 kts 222°
2026-05-05 00:25 46.78367 -71.40462 1105 ft 153 kts 224°
2026-05-05 00:25 46.77610 -71.41506 2109 ft 150 kts 223°
2026-05-05 00:26 46.76774 -71.42707 2495 ft 185 kts 226°
2026-05-05 00:26 46.75683 -71.43903 3003 ft 214 kts 201°
2026-05-05 00:26 46.74070 -71.43973 3592 ft 248 kts 177°
2026-05-05 00:26 46.72311 -71.43735 4692 ft 256 kts 180°
2026-05-05 00:27 46.70501 -71.43559 5780 ft 266 kts 182°
2026-05-05 00:27 46.68646 -71.43409 6828 ft 273 kts 183°
2026-05-05 00:27 46.66731 -71.43401 7886 ft 276 kts 194°
2026-05-05 00:27 46.64870 -71.44081 8911 ft 277 kts 209°
2026-05-05 00:28 46.63200 -71.45441 9950 ft 275 kts 224°
2026-05-05 00:28 46.61847 -71.47362 11010 ft 271 kts 236°
2026-05-05 00:28 46.60539 -71.49502 11664 ft 293 kts 233°
2026-05-05 00:28 46.59076 -71.51652 12569 ft 302 kts 230°
2026-05-05 00:29 46.57557 -71.53781 13625 ft 306 kts 230°
2026-05-05 00:29 46.56007 -71.55935 14515 ft 311 kts 230°
2026-05-05 00:29 46.54439 -71.58130 15384 ft 315 kts 230°
2026-05-05 00:29 46.52856 -71.60374 16235 ft 320 kts 230°
2026-05-05 00:30 46.51280 -71.62634 17068 ft 325 kts 230°
2026-05-05 00:30 46.49671 -71.64953 17958 ft 328 kts 230°
2026-05-05 00:30 46.48042 -71.67307 18699 ft 333 kts 231°
2026-05-05 00:30 46.46388 -71.69692 19441 ft 337 kts 231°
2026-05-05 00:31 46.44715 -71.72102 20183 ft 342 kts 231°
2026-05-05 00:31 46.43018 -71.74546 20935 ft 346 kts 231°
2026-05-05 00:31 46.41296 -71.77019 21543 ft 351 kts 231°
2026-05-05 00:31 46.39558 -71.79514 21726 ft 352 kts 231°
2026-05-05 00:32 46.37845 -71.81944 21763 ft 336 kts 230°
2026-05-05 00:32 46.36220 -71.84185 21765 ft 320 kts 230°
2026-05-05 00:32 46.34616 -71.86375 21741 ft 315 kts 230°
2026-05-05 00:32 46.33034 -71.88540 21760 ft 313 kts 230°
2026-05-05 00:33 46.31458 -71.90707 21764 ft 312 kts 230°
2026-05-05 00:33 46.29886 -71.92873 21764 ft 312 kts 230°
2026-05-05 00:33 46.28317 -71.95039 21764 ft 312 kts 230°
2026-05-05 00:33 46.26745 -71.97201 21761 ft 312 kts 230°
2026-05-05 00:34 46.25174 -71.99359 21750 ft 312 kts 230°
2026-05-05 00:34 46.23602 -72.01519 21751 ft 312 kts 230°
2026-05-05 00:34 46.22031 -72.03678 21750 ft 312 kts 230°
2026-05-05 00:34 46.20460 -72.05838 21751 ft 312 kts 230°
2026-05-05 00:35 46.18907 -72.07967 21752 ft 312 kts 230°
2026-05-05 00:35 46.17333 -72.10123 21724 ft 312 kts 230°
2026-05-05 00:35 46.15760 -72.12278 21730 ft 312 kts 230°
2026-05-05 00:35 46.14186 -72.14425 21737 ft 312 kts 230°
2026-05-05 00:36 46.12610 -72.16570 21736 ft 311 kts 230°
2026-05-05 00:36 46.11035 -72.18715 21736 ft 311 kts 230°
2026-05-05 00:36 46.09442 -72.20891 21486 ft 317 kts 230°
2026-05-05 00:36 46.07838 -72.23073 21237 ft 317 kts 230°
2026-05-05 00:37 46.06234 -72.25250 20970 ft 316 kts 230°
2026-05-05 00:37 46.04636 -72.27416 20707 ft 315 kts 230°
2026-05-05 00:37 46.03046 -72.29571 20455 ft 313 kts 230°
2026-05-05 00:37 46.01487 -72.31687 20199 ft 311 kts 230°
2026-05-05 00:38 45.99918 -72.33816 19923 ft 309 kts 229°
2026-05-05 00:38 45.98355 -72.35935 19673 ft 308 kts 229°
2026-05-05 00:38 45.96797 -72.38041 19428 ft 307 kts 229°
2026-05-05 00:38 45.95312 -72.40211 19181 ft 301 kts 236°
2026-05-05 00:39 45.94161 -72.42682 18937 ft 295 kts 246°
2026-05-05 00:39 45.93208 -72.45280 18699 ft 294 kts 246°
2026-05-05 00:39 45.92249 -72.47869 18459 ft 293 kts 246°
2026-05-05 00:39 45.91290 -72.50444 18226 ft 292 kts 246°
2026-05-05 00:40 45.90335 -72.53005 17980 ft 291 kts 246°
2026-05-05 00:40 45.89382 -72.55558 17705 ft 289 kts 246°
2026-05-05 00:40 45.88434 -72.58098 17430 ft 288 kts 246°
2026-05-05 00:40 45.87504 -72.60587 17166 ft 286 kts 246°
2026-05-05 00:41 45.86564 -72.63099 16903 ft 285 kts 245°
2026-05-05 00:41 45.85628 -72.65596 16635 ft 283 kts 245°
2026-05-05 00:41 45.84698 -72.68080 16358 ft 281 kts 246°
2026-05-05 00:41 45.83776 -72.70542 16095 ft 280 kts 246°
2026-05-05 00:42 45.82857 -72.72991 15850 ft 278 kts 246°
2026-05-05 00:42 45.81951 -72.75406 15558 ft 273 kts 246°
2026-05-05 00:42 45.81054 -72.77798 15185 ft 272 kts 245°
2026-05-05 00:42 45.80171 -72.80146 14821 ft 271 kts 245°
2026-05-05 00:43 45.79280 -72.82515 14449 ft 270 kts 245°
2026-05-05 00:43 45.78391 -72.84879 14074 ft 269 kts 245°
2026-05-05 00:43 45.77504 -72.87235 13700 ft 268 kts 245°
2026-05-05 00:43 45.76617 -72.89585 13295 ft 268 kts 245°
2026-05-05 00:44 45.75732 -72.91921 12901 ft 266 kts 244°
2026-05-05 00:44 45.74853 -72.94236 12522 ft 264 kts 244°
2026-05-05 00:44 45.73981 -72.96529 12144 ft 261 kts 244°
2026-05-05 00:44 45.73117 -72.98806 11752 ft 259 kts 244°
2026-05-05 00:45 45.72288 -73.01051 11376 ft 257 kts 248°
2026-05-05 00:45 45.71773 -73.03474 10994 ft 254 kts 261°
2026-05-05 00:45 45.71520 -73.05967 10605 ft 253 kts 261°
2026-05-05 00:45 45.71262 -73.08446 10217 ft 251 kts 261°
2026-05-05 00:46 45.71002 -73.10911 9822 ft 250 kts 261°
2026-05-05 00:46 45.70668 -73.13349 9396 ft 249 kts 255°
2026-05-05 00:46 45.70223 -73.15734 8982 ft 247 kts 255°
2026-05-05 00:46 45.69793 -73.18107 8559 ft 246 kts 256°
2026-05-05 00:47 45.69373 -73.20429 8161 ft 244 kts 255°
2026-05-05 00:47 45.68949 -73.22765 7745 ft 242 kts 255°
2026-05-05 00:47 45.68528 -73.25078 7333 ft 240 kts 255°
2026-05-05 00:47 45.68109 -73.27394 6925 ft 241 kts 255°
2026-05-05 00:48 45.67688 -73.29714 6485 ft 241 kts 255°
2026-05-05 00:48 45.67267 -73.32025 6093 ft 239 kts 255°
2026-05-05 00:48 45.66848 -73.34316 6004 ft 239 kts 255°
2026-05-05 00:48 45.66424 -73.36633 6008 ft 242 kts 255°
2026-05-05 00:49 45.65996 -73.38968 6009 ft 243 kts 255°
2026-05-05 00:49 45.65574 -73.41265 6004 ft 239 kts 255°
2026-05-05 00:49 45.65168 -73.43462 5999 ft 219 kts 254°
2026-05-05 00:49 45.64796 -73.45478 6003 ft 201 kts 255°
2026-05-05 00:50 45.64454 -73.47341 6004 ft 187 kts 255°
2026-05-05 00:50 45.64137 -73.49069 6000 ft 173 kts 254°
2026-05-05 00:50 45.63837 -73.50703 6002 ft 168 kts 254°
2026-05-05 00:50 45.63542 -73.52314 6005 ft 167 kts 254°
2026-05-05 00:51 45.63158 -73.53874 6007 ft 167 kts 240°
2026-05-05 00:51 45.62376 -73.55113 6009 ft 170 kts 227°
2026-05-05 00:51 45.61495 -73.56272 5504 ft 183 kts 226°
2026-05-05 00:51 45.60507 -73.57557 4718 ft 200 kts 225°
2026-05-05 00:52 45.59441 -73.58942 3881 ft 216 kts 225°
2026-05-05 00:52 45.58320 -73.60426 3302 ft 219 kts 225°
2026-05-05 00:52 45.57215 -73.61884 2640 ft 215 kts 224°
2026-05-05 00:52 45.56160 -73.63292 2223 ft 197 kts 224°
2026-05-05 00:53 45.55199 -73.64574 1944 ft 182 kts 224°
2026-05-05 00:53 45.54303 -73.65760 1769 ft 168 kts 223°
2026-05-05 00:53 45.53470 -73.66856 1497 ft 156 kts 222°
2026-05-05 00:53 45.52715 -73.67853 1304 ft 136 kts 222°
2026-05-05 00:54 45.52066 -73.68700 1113 ft 123 kts 222°
2026-05-05 00:54 45.51446 -73.69509 935 ft 119 kts 221°
2026-05-05 00:54 45.50837 -73.70304 761 ft 118 kts 221°
2026-05-05 00:54 45.50228 -73.71106 645 ft 120 kts 220°
2026-05-05 00:55 45.49616 -73.71915 508 ft 119 kts 221°
2026-05-05 00:55 45.48999 -73.72721 333 ft 120 kts 220°
2026-05-05 00:55 45.48385 -73.73533 165 ft 120 kts 220°
2026-05-05 00:55 45.47803 -73.74278 111 ft 95 kts 222°
2026-05-05 00:56 45.47451 -73.74745 112 ft 46 kts 223°
2026-05-05 00:56 45.47287 -73.74924 115 ft 22 kts 197°
2026-05-05 00:56 45.47152 -73.74971 112 ft 19 kts 193°
2026-05-05 00:56 45.47092 -73.74991 111 ft 0 kts 193°
2026-05-05 00:58 45.47087 -73.74992 111 ft 4 kts 191°
2026-05-05 00:59 45.47014 -73.74997 110 ft 11 kts 212°
2026-05-05 00:59 45.46938 -73.75039 110 ft 13 kts 190°
2026-05-05 00:59 45.46840 -73.75039 109 ft 15 kts 176°
2026-05-05 00:59 45.46724 -73.75032 108 ft 18 kts 176°
2026-05-05 01:00 45.46593 -73.75026 107 ft 20 kts 175°
2026-05-05 01:00 45.46454 -73.75015 106 ft 14 kts 177°
2026-05-05 01:00 45.46345 -73.75008 106 ft 17 kts 177°
2026-05-05 01:00 45.46223 -73.75001 105 ft 16 kts 177°
2026-05-05 01:01 45.46156 -73.74936 105 ft 14 kts 93°
2026-05-05 01:01 45.46159 -73.74788 104 ft 16 kts 89°
2026-05-05 01:01 45.46161 -73.74620 103 ft 13 kts 94°
2026-05-05 01:01 45.46101 -73.74524 104 ft 14 kts 158°
2026-05-05 01:02 45.46000 -73.74513 104 ft 12 kts 183°
2026-05-05 01:02 45.45963 -73.74533 105 ft 6 kts 205°
2026-05-05 01:02 45.45922 -73.74547 105 ft 7 kts 178°
2026-05-05 01:02 45.45893 -73.74544 105 ft 3 kts 178°
2026-05-05 01:03 45.45883 -73.74544 105 ft 0 kts 178°